VOE69 LIRP-LMML

Flight info

Callsign VOE69
Flight time N/A
Altitude 19000
Route DOCME6F/21L DOCME M729 ELB/N0439F370 DCT VELAD DCT TINTO DCT POKAV DCT GIANO DCT MARON DCT EKOLA L12 GZO
Aircraft A20N/M-SDE2E3FGHIRWXY/LB1

Departure

Time N/A
Airport Pisa International Airport (LIRP)

Arrival

Time 2026-05-04 16:22
Airport Malta International Airport (LMML)
Time Latitude Longitude Altitude Speed Heading
2026-05-04 16:21 35.84771 14.49574 247 ft 0 kts 358°
2026-05-04 16:53 35.84753 14.49573 246 ft 2 kts
2026-05-04 16:54 35.84739 14.49571 245 ft 2 kts
2026-05-04 16:55 35.84684 14.49567 242 ft 1 kts
2026-05-04 16:55 35.84677 14.49568 242 ft 0 kts 340°
2026-05-04 16:58 35.84719 14.49535 244 ft 6 kts 316°
2026-05-04 16:58 35.84760 14.49484 246 ft 10 kts 312°
2026-05-04 16:59 35.84886 14.49331 250 ft 11 kts 315°
2026-05-04 17:00 35.84913 14.49096 256 ft 9 kts 296°
2026-05-04 17:00 35.85025 14.48920 260 ft 7 kts 315°
2026-05-04 17:01 35.85107 14.48819 263 ft 11 kts 314°
2026-05-04 17:01 35.85237 14.48657 267 ft 21 kts 314°
2026-05-04 17:02 35.85379 14.48482 266 ft 15 kts 315°
2026-05-04 17:02 35.85511 14.48321 264 ft 12 kts 315°
2026-05-04 17:03 35.85572 14.48247 262 ft 9 kts 314°
2026-05-04 17:03 35.85620 14.48215 261 ft 8 kts 346°
2026-05-04 17:03 35.85662 14.48102 261 ft 0 kts 268°
2026-05-04 17:04 35.85661 14.48081 261 ft 3 kts 268°
2026-05-04 17:05 35.85673 14.47995 262 ft 5 kts 284°
2026-05-04 17:05 35.85614 14.47927 263 ft 5 kts 158°
2026-05-04 17:06 35.85532 14.48020 262 ft 41 kts 135°
2026-05-04 17:06 35.85166 14.48476 266 ft 107 kts 134°
2026-05-04 17:07 35.83643 14.50386 508 ft 184 kts 134°
2026-05-04 17:07 35.83036 14.51148 841 ft 192 kts 139°
2026-05-04 17:07 35.81410 14.51753 1880 ft 186 kts 190°
2026-05-04 17:07 35.80331 14.51017 2516 ft 182 kts 227°
2026-05-04 17:08 35.79725 14.49583 2836 ft 194 kts 247°
2026-05-04 17:08 35.78645 14.46345 3518 ft 218 kts 242°
2026-05-04 17:08 35.77858 14.44645 3764 ft 237 kts 239°
2026-05-04 17:09 35.77008 14.42824 4102 ft 253 kts 247°
2026-05-04 17:09 35.76743 14.40682 4538 ft 262 kts 278°
2026-05-04 17:09 35.77346 14.38542 5087 ft 269 kts 296°
2026-05-04 17:10 35.78926 14.34357 6540 ft 272 kts 295°
2026-05-04 17:10 35.83097 14.30084 8632 ft 275 kts 341°
2026-05-04 17:11 35.84928 14.29317 9280 ft 278 kts 341°
2026-05-04 17:11 35.86761 14.28525 9944 ft 281 kts 338°
2026-05-04 17:11 35.89502 14.25135 10820 ft 301 kts 297°
2026-05-04 17:12 35.90398 14.22762 11179 ft 313 kts 296°
2026-05-04 17:12 35.92264 14.17889 12431 ft 317 kts 297°
2026-05-04 17:13 35.95249 14.10506 14247 ft 322 kts 298°
2026-05-04 17:14 35.98320 14.03079 15868 ft 329 kts 298°
2026-05-04 17:14 35.99368 14.00550 16391 ft 331 kts 298°
2026-05-04 17:14 36.01476 13.95465 17422 ft 334 kts 298°
2026-05-04 17:15 36.02542 13.92892 17921 ft 336 kts 297°
2026-05-04 17:15 36.04676 13.87737 18881 ft 339 kts 297°
2026-05-04 17:16 36.06839 13.82504 19794 ft 343 kts 297°
2026-05-04 17:16 36.10120 13.74549 21043 ft 349 kts 297°
2026-05-04 17:17 36.11222 13.71873 21454 ft 351 kts 297°
2026-05-04 17:17 36.14526 13.63840 22618 ft 357 kts 297°
2026-05-04 17:18 36.15500 13.61465 22950 ft 358 kts 297°
2026-05-04 17:18 36.17342 13.56977 23548 ft 362 kts 297°
2026-05-04 17:19 36.19780 13.51024 24310 ft 366 kts 297°
2026-05-04 17:19 36.22073 13.45412 25013 ft 369 kts 297°
2026-05-04 17:20 36.24403 13.39701 25696 ft 372 kts 297°
2026-05-04 17:20 36.26769 13.33893 26353 ft 375 kts 296°
2026-05-04 17:20 36.27978 13.30921 26675 ft 377 kts 296°
2026-05-04 17:21 36.30345 13.25094 27316 ft 380 kts 296°
2026-05-04 17:21 36.32727 13.19220 27889 ft 383 kts 296°
2026-05-04 17:22 36.33917 13.16279 28136 ft 386 kts 296°
2026-05-04 17:22 36.35134 13.13273 28293 ft 391 kts 296°
2026-05-04 17:23 36.38688 13.04467 29067 ft 395 kts 296°
2026-05-04 17:23 36.39920 13.01410 29336 ft 397 kts 296°
2026-05-04 17:23 36.42388 12.95275 29838 ft 400 kts 296°
2026-05-04 17:24 36.43630 12.92189 30086 ft 401 kts 296°
2026-05-04 17:24 36.47387 12.82828 30902 ft 403 kts 296°
2026-05-04 17:25 36.48633 12.79716 31250 ft 401 kts 296°
2026-05-04 17:25 36.51102 12.73537 31926 ft 398 kts 296°
2026-05-04 17:26 36.53567 12.67359 32570 ft 396 kts 296°
2026-05-04 17:26 36.57221 12.58178 33489 ft 392 kts 296°
2026-05-04 17:27 36.59614 12.52151 34060 ft 390 kts 296°
2026-05-04 17:27 36.62030 12.46053 34606 ft 389 kts 295°
2026-05-04 17:28 36.64419 12.40015 35030 ft 391 kts 295°
2026-05-04 17:29 36.67945 12.31076 35613 ft 393 kts 295°
2026-05-04 17:29 36.71537 12.21945 36097 ft 395 kts 295°
2026-05-04 17:31 36.77577 12.06537 36103 ft 395 kts 295°
2026-05-04 17:32 36.85623 11.92619 36103 ft 401 kts 312°
2026-05-04 17:33 36.94175 11.83475 36095 ft 403 kts 317°
2026-05-04 17:34 37.02844 11.74534 36089 ft 404 kts 317°
2026-05-04 17:35 37.13649 11.63345 36076 ft 404 kts 317°
2026-05-04 17:36 37.17999 11.58829 36074 ft 404 kts 316°
2026-05-04 17:36 37.22327 11.54327 36076 ft 404 kts 316°
2026-05-04 17:37 37.26671 11.49802 36074 ft 404 kts 316°
2026-05-04 17:37 37.31003 11.45282 36072 ft 404 kts 316°
2026-05-04 17:38 37.35384 11.40704 36074 ft 405 kts 316°
2026-05-04 17:38 37.39725 11.36161 36071 ft 405 kts 316°
2026-05-04 17:39 37.46012 11.29571 36069 ft 406 kts 316°
2026-05-04 17:39 37.50455 11.24903 36070 ft 406 kts 316°
2026-05-04 17:40 37.54810 11.20319 36072 ft 407 kts 316°
2026-05-04 17:40 37.59180 11.15714 36072 ft 407 kts 315°
2026-05-04 17:41 37.63556 11.11093 36075 ft 407 kts 315°
2026-05-04 17:41 37.67928 11.06472 36073 ft 407 kts 315°
2026-05-04 17:42 37.72290 11.01853 36074 ft 408 kts 315°
2026-05-04 17:42 37.76635 10.97245 36069 ft 408 kts 315°
2026-05-04 17:43 37.81028 10.92579 36074 ft 409 kts 315°
2026-05-04 17:43 37.85422 10.87903 36071 ft 409 kts 315°
2026-05-04 17:44 37.89791 10.83247 36072 ft 409 kts 315°
2026-05-04 17:44 37.94185 10.78556 36070 ft 410 kts 315°
2026-05-04 17:45 37.98573 10.73864 36071 ft 410 kts 315°
2026-05-04 17:45 38.02979 10.69145 36070 ft 410 kts 315°
2026-05-04 17:46 38.07365 10.64441 36063 ft 411 kts 315°
2026-05-04 17:46 38.11755 10.59724 36064 ft 410 kts 315°
2026-05-04 17:47 38.15548 10.55643 36069 ft 411 kts 315°
2026-05-04 17:47 38.20418 10.50394 36075 ft 411 kts 315°
2026-05-04 17:48 38.24822 10.45639 36076 ft 411 kts 315°
2026-05-04 17:48 38.29257 10.40845 36071 ft 411 kts 315°
2026-05-04 17:49 38.33630 10.36106 36070 ft 411 kts 315°
2026-05-04 17:49 38.37851 10.31526 36070 ft 410 kts 314°
2026-05-04 17:50 38.42233 10.26765 36071 ft 410 kts 314°
2026-05-04 17:50 38.46652 10.21954 36070 ft 410 kts 314°
2026-05-04 17:51 38.51065 10.17141 36068 ft 411 kts 314°
2026-05-04 17:51 38.55434 10.12370 36071 ft 411 kts 314°
2026-05-04 17:52 38.59812 10.07580 36070 ft 412 kts 314°
2026-05-04 17:52 38.64198 10.02774 36071 ft 412 kts 314°
2026-05-04 17:53 38.68597 9.97945 35805 ft 412 kts 314°
2026-05-04 17:53 38.70775 9.95551 35963 ft 412 kts 314°
2026-05-04 17:53 38.72962 9.93145 36023 ft 414 kts 314°
2026-05-04 17:54 38.77366 9.88295 36060 ft 413 kts 314°
2026-05-04 17:54 38.81763 9.83447 36068 ft 413 kts 314°
2026-05-04 17:55 38.86123 9.78626 36071 ft 413 kts 314°
2026-05-04 17:55 38.90521 9.73756 36068 ft 414 kts 314°
2026-05-04 17:56 38.94915 9.68881 36071 ft 414 kts 314°
2026-05-04 17:56 38.99330 9.63978 36067 ft 414 kts 314°
2026-05-04 17:57 39.03721 9.59088 36060 ft 414 kts 314°
2026-05-04 17:57 39.08129 9.54176 36063 ft 415 kts 314°
2026-05-04 17:58 39.12762 9.49575 36059 ft 420 kts 320°
2026-05-04 17:58 39.17723 9.45451 36062 ft 423 kts 322°
2026-05-04 17:59 39.21711 9.42209 36053 ft 422 kts 322°
2026-05-04 18:00 39.30042 9.35423 36055 ft 423 kts 322°
2026-05-04 18:00 39.35072 9.31315 36060 ft 422 kts 321°
2026-05-04 18:01 39.40117 9.27182 35816 ft 422 kts 321°
2026-05-04 18:01 39.42594 9.25150 35568 ft 420 kts 321°
2026-05-04 18:01 39.45099 9.23095 35321 ft 418 kts 322°
2026-05-04 18:02 39.50074 9.19008 34825 ft 415 kts 321°
2026-05-04 18:02 39.52512 9.17002 34583 ft 415 kts 322°
2026-05-04 18:02 39.54977 9.14971 34334 ft 416 kts 321°
2026-05-04 18:02 39.57455 9.12926 34068 ft 417 kts 322°
2026-05-04 18:03 39.59992 9.10832 33716 ft 419 kts 322°
2026-05-04 18:03 39.62494 9.08766 33218 ft 421 kts 322°
2026-05-04 18:03 39.64979 9.06713 32601 ft 422 kts 322°
2026-05-04 18:03 39.67559 9.04577 31872 ft 423 kts 322°
2026-05-04 18:04 39.70058 9.02508 31146 ft 424 kts 322°
2026-05-04 18:04 39.72531 9.00461 30664 ft 420 kts 322°
2026-05-04 18:04 39.77496 8.96348 29725 ft 412 kts 322°
2026-05-04 18:05 39.79922 8.94334 29265 ft 408 kts 322°
2026-05-04 18:05 39.82285 8.92370 28834 ft 404 kts 321°
2026-05-04 18:05 39.84694 8.90367 28375 ft 400 kts 322°
2026-05-04 18:05 39.87086 8.88375 27918 ft 397 kts 321°
2026-05-04 18:06 39.91709 8.84517 27029 ft 391 kts 322°
2026-05-04 18:06 39.94016 8.82591 26575 ft 388 kts 321°
2026-05-04 18:06 39.96333 8.80652 26115 ft 385 kts 322°
2026-05-04 18:07 39.98623 8.78734 25660 ft 383 kts 322°
2026-05-04 18:07 40.00859 8.76862 25213 ft 380 kts 322°
2026-05-04 18:07 40.03118 8.74969 24761 ft 378 kts 322°
2026-05-04 18:07 40.05389 8.73065 24308 ft 376 kts 322°
2026-05-04 18:08 40.07592 8.71218 23874 ft 373 kts 322°
2026-05-04 18:08 40.09765 8.69393 23446 ft 371 kts 322°
2026-05-04 18:08 40.11921 8.67581 23025 ft 368 kts 322°
2026-05-04 18:08 40.14094 8.65753 22602 ft 366 kts 322°
2026-05-04 18:09 40.18362 8.62156 21768 ft 361 kts 322°
2026-05-04 18:09 40.22655 8.58538 20908 ft 358 kts 322°
2026-05-04 18:10 40.24806 8.56721 20455 ft 357 kts 322°
2026-05-04 18:10 40.26941 8.54916 20003 ft 355 kts 322°
2026-05-04 18:10 40.29026 8.53151 19576 ft 354 kts 323°
2026-05-04 18:10 40.31147 8.51355 19141 ft 353 kts 323°
2026-05-04 18:11 40.33187 8.49624 18719 ft 352 kts 323°
2026-05-04 18:11 40.35256 8.47870 18274 ft 352 kts 324°
2026-05-04 18:11 40.37316 8.46125 17837 ft 351 kts 324°
2026-05-04 18:11 40.39385 8.44374 17399 ft 350 kts 324°
2026-05-04 18:12 40.41582 8.42945 16960 ft 354 kts 338°
2026-05-04 18:12 40.44002 8.42223 16505 ft 358 kts 352°
2026-05-04 18:12 40.46471 8.42085 16063 ft 360 kts 357°
2026-05-04 18:12 40.49025 8.42070 15615 ft 359 kts 358°
2026-05-04 18:13 40.51520 8.42069 15188 ft 358 kts 358°
2026-05-04 18:13 40.53988 8.42060 14754 ft 357 kts 358°
2026-05-04 18:13 40.59026 8.42014 13889 ft 356 kts 358°
2026-05-04 18:14 40.61515 8.41981 13445 ft 356 kts 358°
2026-05-04 18:14 40.63986 8.41947 12984 ft 355 kts 358°
2026-05-04 18:14 40.66505 8.41914 12542 ft 355 kts 358°
2026-05-04 18:15 40.71469 8.41843 11716 ft 350 kts 357°
2026-05-04 18:15 40.76197 8.41777 11603 ft 321 kts 357°
2026-05-04 18:15 40.78422 8.41746 11528 ft 304 kts 357°
2026-05-04 18:16 40.80529 8.41714 11461 ft 301 kts 356°
2026-05-04 18:16 40.82644 8.41677 11418 ft 310 kts 356°
2026-05-04 18:16 40.84845 8.41644 11260 ft 305 kts 356°
2026-05-04 18:17 40.89067 8.41592 10283 ft 305 kts 356°
2026-05-04 18:17 40.91183 8.41563 9863 ft 299 kts 355°
2026-05-04 18:17 40.95366 8.41508 9084 ft 294 kts 355°
2026-05-04 18:18 40.97386 8.41480 8726 ft 287 kts 355°
2026-05-04 18:18 40.99388 8.41720 8280 ft 295 kts 17°
2026-05-04 18:18 41.01128 8.43257 7895 ft 296 kts 52°
2026-05-04 18:18 41.01953 8.45717 7540 ft 290 kts 88°
2026-05-04 18:19 41.00420 8.50086 6985 ft 263 kts 157°
2026-05-04 18:19 40.98684 8.50696 6740 ft 246 kts 184°
2026-05-04 18:19 40.96990 8.50287 6480 ft 244 kts 208°
2026-05-04 18:20 40.95569 8.49082 6199 ft 243 kts 217°
2026-05-04 18:20 40.94141 8.47885 5904 ft 243 kts 212°
2026-05-04 18:20 40.92606 8.46817 5613 ft 243 kts 209°
2026-05-04 18:20 40.91067 8.45830 5299 ft 241 kts 208°
2026-05-04 18:21 40.89556 8.44896 4978 ft 238 kts 207°
2026-05-04 18:21 40.88055 8.43987 4668 ft 239 kts 206°
2026-05-04 18:21 40.86517 8.43061 4369 ft 236 kts 206°
2026-05-04 18:21 40.84993 8.42147 4050 ft 235 kts 206°
2026-05-04 18:22 40.83518 8.41265 3735 ft 235 kts 206°
2026-05-04 18:22 40.82012 8.40363 3433 ft 233 kts 207°
2026-05-04 18:22 40.80526 8.39471 3297 ft 230 kts 206°
2026-05-04 18:22 40.79116 8.38629 3169 ft 210 kts 206°
2026-05-04 18:23 40.77807 8.37843 2894 ft 204 kts 205°
2026-05-04 18:23 40.76520 8.37071 2703 ft 191 kts 206°
2026-05-04 18:23 40.75347 8.36367 2425 ft 173 kts 205°
2026-05-04 18:23 40.74291 8.35733 2205 ft 159 kts 205°
2026-05-04 18:24 40.73336 8.35159 1968 ft 145 kts 205°
2026-05-04 18:24 40.72434 8.34617 1763 ft 140 kts 204°
2026-05-04 18:24 40.71524 8.34070 1584 ft 140 kts 204°
2026-05-04 18:24 40.70636 8.33537 1411 ft 139 kts 203°
2026-05-04 18:25 40.69761 8.33010 1241 ft 139 kts 204°
2026-05-04 18:25 40.68873 8.32478 1063 ft 139 kts 204°
2026-05-04 18:25 40.67974 8.31943 876 ft 138 kts 203°
2026-05-04 18:25 40.67084 8.31433 682 ft 138 kts 203°
2026-05-04 18:26 40.66202 8.30901 474 ft 137 kts 205°
2026-05-04 18:26 40.65345 8.30371 288 ft 136 kts 205°
2026-05-04 18:26 40.64476 8.29841 147 ft 136 kts 204°
2026-05-04 18:26 40.63640 8.29339 89 ft 111 kts 205°
2026-05-04 18:27 40.63092 8.29007 86 ft 62 kts 204°
2026-05-04 18:27 40.62858 8.28870 84 ft 20 kts 201°
2026-05-04 18:27 40.62722 8.28829 84 ft 19 kts 178°
2026-05-04 18:27 40.62634 8.28842 83 ft 11 kts 160°
2026-05-04 18:28 40.62599 8.28875 83 ft 4 kts 118°
2026-05-04 18:28 40.62595 8.28921 83 ft 5 kts 72°
2026-05-04 18:28 40.62615 8.28964 84 ft 5 kts 39°
2026-05-04 18:28 40.62659 8.28993 84 ft 9 kts 24°
2026-05-04 18:29 40.62738 8.29040 84 ft 14 kts 25°
2026-05-04 18:29 40.62811 8.29086 85 ft 8 kts 35°
2026-05-04 18:29 40.62844 8.29153 85 ft 9 kts 67°
2026-05-04 18:29 40.62870 8.29234 85 ft 9 kts 62°
2026-05-04 18:30 40.62966 8.29318 85 ft 5 kts 26°
2026-05-04 18:30 40.62977 8.29336 85 ft 1 kts 73°
2026-05-04 18:30 40.62976 8.29354 85 ft 2 kts 106°
2026-05-04 18:31 40.62967 8.29383 85 ft 2 kts 114°
2026-05-04 18:31 40.62962 8.29397 85 ft 0 kts 114°